Wind_Speed
37 36 35 34 33 33 32 31 30 29 28 27 26 26 25 24 23 21 20 20 20 18 19 19 18 17 15 15 14 14 15 15 12 12 11 12 13 11 12 15 16 16
38 37 36 35 34 34 33 33 32 31 30 28 27 26 24 24 24 23 21 21 21 19 18 19 18 18 17 17 16 15 16 15 14 14 14 14 14 13 13 14 15 18
39 39 38 37 36 36 35 34 33 32 31 30 28 27 25 24 24 24 23 23 24 22 20 19 19 19 19 19 18 17 18 17 16 16 17 16 15 15 14 15 15 17
40 40 39 39 38 37 36 36 35 34 33 31 30 29 27 25 24 24 24 25 26 25 23 21 20 20 20 20 20 20 20 19 17 18 19 19 18 17 16 16 16 16
41 41 41 40 40 39 37 37 36 35 34 33 31 30 29 28 26 25 24 25 26 27 26 24 22 21 21 21 22 22 21 21 19 20 21 21 20 19 18 17 18 18
42 42 42 42 41 40 39 39 38 36 36 34 33 31 30 29 28 27 26 26 27 27 27 27 25 24 24 23 23 23 22 22 21 21 22 23 23 22 21 20 20 21
44 43 43 43 42 41 40 39 39 38 36 35 33 32 31 30 30 30 29 28 27 27 28 28 27 27 27 26 26 25 24 23 23 22 23 24 25 25 24 23 23 23
45 44 44 44 43 43 42 41 39 38 37 35 33 33 32 31 31 31 31 30 29 28 28 28 27 27 28 28 28 28 27 25 24 24 24 25 26 26 26 26 25 24
46 45 45 45 45 44 44 42 41 39 38 36 35 33 33 33 32 31 32 32 31 30 30 29 29 29 28 29 29 29 29 28 26 25 26 26 26 26 26 25 25 24
46 46 46 46 46 46 45 43 43 42 40 39 37 36 34 33 33 32 32 33 32 32 32 31 31 31 31 31 31 31 30 29 28 27 27 28 28 27 26 26 25 25
48 47 47 47 47 46 45 44 44 43 42 40 39 38 35 34 33 34 33 34 34 33 33 34 33 33 34 34 34 34 33 32 30 29 29 29 30 29 29 29 28 27
49 48 48 48 47 46 45 44 44 43 42 41 40 39 37 35 35 35 35 35 35 35 35 35 35 35 35 36 35 36 36 34 33 32 32 31 31 31 30 30 30 29
49 48 48 48 47 46 44 43 43 43 41 40 40 39 38 37 36 36 37 37 37 36 36 36 36 36 36 36 36 36 36 36 35 33 33 33 33 32 32 32 32 31
47 47 47 47 46 46 44 42 42 41 40 38 37 38 38 38 37 36 37 38 38 37 37 36 36 37 37 37 38 37 36 36 35 34 34 34 34 33 33 33 33 33
45 45 46 46 46 46 45 44 42 41 40 39 38 37 37 36 36 35 35 37 37 38 38 37 37 38 38 38 38 39 38 37 36 36 35 35 34 34 34 34 33 33
43 43 44 45 46 46 46 45 44 42 40 40 40 39 37 36 35 34 35 36 37 37 38 38 39 39 40 40 40 39 39 39 38 37 37 36 36 35 35 35 34 33
42 43 43 43 45 45 46 45 45 44 42 41 41 40 39 38 37 36 36 36 36 38 39 39 40 40 40 40 40 40 40 40 40 39 39 38 38 37 37 37 36 35
42 42 42 43 43 44 45 45 45 44 44 43 42 42 41 41 40 39 38 37 37 38 39 40 40 40 40 40 40 40 40 40 40 41 41 40 40 40 40 39 39 38
43 43 43 43 43 43 43 44 45 45 45 45 44 43 42 43 43 42 41 39 39 39 40 40 40 40 40 39 39 39 39 39 40 41 42 42 43 43 42 42 41 41
43 43 44 44 43 43 43 43 45 45 45 45 44 43 44 45 45 44 43 42 41 41 42 42 41 41 41 40 39 38 37 38 39 41 42 43 44 44 44 44 44 44
43 43 43 43 43 43 43 43 44 45 45 45 45 44 45 46 46 46 45 44 43 43 44 44 44 44 43 42 41 40 38 38 39 40 42 43 44 45 45 45 45 45
43 43 43 43 43 43 44 44 45 45 44 44 45 44 44 45 46 46 46 46 45 44 45 46 45 46 45 45 45 43 40 40 40 41 43 44 45 45 45 45 45 46
43 43 43 42 43 44 45 46 46 45 44 44 44 44 44 44 45 46 46 46 46 45 46 47 47 46 46 46 46 45 43 42 42 43 44 46 47 46 46 46 46 46
42 42 43 43 43 44 45 45 45 44 43 43 43 44 44 44 43 43 44 46 46 47 47 48 48 47 47 45 44 44 44 44 44 43 44 46 48 49 48 47 48 48
42 42 43 44 44 44 43 43 43 42 42 42 42 43 43 42 41 40 42 43 45 46 46 47 46 46 46 46 44 43 43 44 44 43 45 47 48 49 49 49 49 49
40 41 42 42 42 42 41 40 40 40 39 39 40 41 41 40 40 39 39 39 40 41 42 44 44 43 43 45 45 44 44 44 43 45 47 48 48 48 49 50 51 51
Wind_Direction
220 221 220 218 217 219 220 221 226 228 226 226 228 230 230 230 231 228 229 236 237 232 228 231 232 231 229 228 228 226 228 233 230 234 239 236 253 256 219 202 189 185
220 221 220 220 219 220 222 223 226 229 230 230 231 233 234 233 231 228 227 232 239 239 231 230 233 233 231 231 229 226 229 234 231 235 243 241 250 253 226 207 197 190
221 221 221 221 222 222 223 224 226 227 230 231 230 230 232 234 233 229 225 227 236 242 238 233 233 234 232 230 232 230 230 235 237 239 246 247 248 251 236 215 206 201
221 222 223 224 225 225 224 225 225 225 227 229 230 228 227 229 233 232 227 225 230 238 243 241 235 234 233 229 231 232 231 236 241 242 245 247 247 249 243 223 211 212
222 222 223 224 225 225 226 226 225 225 225 226 230 230 227 226 229 232 231 227 228 233 240 243 239 236 235 231 230 232 233 236 239 239 240 242 244 247 244 231 217 214
222 222 223 225 225 225 226 227 226 225 225 227 229 231 231 228 227 229 231 230 229 230 233 238 241 239 237 236 233 234 236 237 237 235 235 237 240 244 243 240 228 215
221 222 223 224 225 225 226 227 227 226 226 228 228 230 231 231 229 228 229 231 231 230 230 235 240 241 241 240 238 239 238 238 237 235 235 234 237 242 243 244 240 222
222 222 223 225 226 226 226 227 227 227 227 227 227 229 230 232 233 231 228 228 230 232 232 233 237 240 242 241 241 242 240 239 238 236 236 236 235 240 242 242 242 231
223 224 224 225 226 227 228 228 228 229 228 227 226 228 229 229 232 232 231 229 228 231 233 233 235 237 239 241 241 242 242 242 241 237 237 238 238 239 240 240 240 237
222 223 224 226 226 228 229 230 231 232 231 230 228 227 228 229 230 230 233 233 230 229 232 233 233 234 236 238 240 242 244 244 243 240 238 239 241 241 241 242 242 242
222 223 225 226 227 228 230 231 232 233 233 233 231 229 228 229 229 229 230 234 234 231 231 233 233 233 234 235 237 240 243 244 244 243 240 239 241 243 244 245 246 245
224 224 224 227 229 229 231 231 231 232 233 235 235 233 230 228 229 230 230 232 237 236 234 233 233 232 233 234 235 235 239 242 243 243 242 241 240 242 244 246 247 248
224 225 223 226 229 230 229 228 229 230 231 232 235 235 235 232 230 231 233 234 236 238 236 235 234 233 233 234 234 233 235 239 241 242 242 242 241 242 243 245 247 249
223 225 224 224 227 229 227 224 225 227 226 226 229 232 235 235 231 229 233 235 235 238 238 236 235 235 234 234 233 232 233 235 239 240 240 240 241 241 241 242 245 247
218 222 223 224 225 226 226 224 223 224 223 223 225 227 231 232 229 226 229 233 233 235 236 235 234 236 236 235 234 232 231 232 235 238 237 238 240 241 240 240 242 244
216 219 222 223 224 225 227 226 223 222 223 222 222 225 227 228 227 224 225 230 233 232 233 234 234 236 238 239 239 237 235 233 234 235 236 236 238 239 238 239 240 242
216 218 220 222 224 225 226 226 225 222 222 222 222 223 225 227 228 225 223 226 231 233 233 234 236 238 240 242 243 243 241 238 236 236 236 236 237 238 238 239 240 241
217 218 219 222 224 225 225 226 226 223 221 221 222 222 222 225 228 228 225 223 226 232 235 236 238 242 244 245 246 246 245 243 240 238 236 237 237 237 239 240 240 239
217 219 220 222 225 225 225 225 225 225 223 222 222 221 221 223 226 229 229 225 223 228 233 236 238 242 246 248 248 248 247 246 244 241 238 239 239 239 239 240 240 240
217 220 221 222 224 224 224 223 224 225 225 222 221 221 222 223 225 228 229 229 226 226 230 235 238 240 244 248 249 249 247 245 245 244 242 242 242 241 239 240 241 241
216 219 221 222 223 223 224 224 225 225 224 221 220 221 223 224 225 227 229 230 230 228 228 232 237 240 243 246 249 249 247 246 244 243 244 244 244 242 241 241 242 241
215 217 220 222 222 223 224 226 226 226 225 223 221 221 223 224 226 227 228 230 231 231 230 232 235 238 241 244 247 248 247 246 244 242 242 243 243 243 242 243 243 242
215 216 219 222 222 223 225 226 226 226 226 225 223 221 223 225 227 228 229 230 232 232 233 235 236 237 239 242 245 246 246 245 245 242 241 241 241 242 243 244 245 244
216 217 219 221 223 224 226 226 226 226 227 227 226 225 226 228 228 230 231 232 234 234 236 238 238 238 238 240 242 244 245 245 245 244 243 242 241 240 241 243 245 247
217 218 220 222 224 225 226 227 228 228 228 229 229 230 230 229 229 231 232 233 235 236 238 240 241 240 240 241 242 243 244 246 246 244 244 244 242 240 240 241 243 245
219 219 220 222 223 224 226 228 230 231 230 230 231 232 231 231 230 231 233 234 235 237 239 241 243 243 243 243 244 244 244 244 245 245 245 245 243 242 241 242 242 243
Height
1521 1523 1526 1528 1530 1533 1535 1536 1538 1539 1541 1543 1544 1546 1548 1549 1551 1553 1554 1555 1557 1559 1560 1562 1563 1564 1566 1567 1568 1569 1570 1570 1571 1571 1572 1573 1573 1575 1576 1576 1578 1579
1518 1520 1523 1525 1527 1529 1532 1533 1535 1537 1538 1540 1542 1544 1545 1548 1549 1551 1552 1553 1554 1556 1558 1560 1561 1562 1564 1565 1566 1567 1568 1569 1570 1570 1571 1572 1572 1573 1574 1575 1576 1578
1514 1517 1519 1521 1523 1526 1528 1531 1533 1534 1536 1538 1540 1542 1543 1545 1547 1549 1551 1552 1553 1554 1556 1558 1559 1560 1562 1563 1564 1565 1567 1568 1569 1569 1569 1570 1571 1572 1573 1574 1575 1576
1510 1513 1515 1518 1520 1522 1525 1527 1529 1531 1533 1535 1537 1539 1541 1543 1545 1546 1548 1550 1551 1552 1554 1555 1557 1558 1560 1561 1562 1563 1564 1566 1567 1568 1568 1569 1570 1570 1571 1572 1573 1574
1506 1509 1511 1514 1517 1519 1522 1524 1526 1528 1530 1532 1534 1536 1539 1541 1542 1544 1546 1548 1549 1550 1551 1553 1555 1556 1558 1559 1560 1561 1562 1563 1565 1566 1567 1567 1568 1569 1570 1570 1571 1572
1502 1505 1508 1511 1513 1516 1518 1520 1523 1525 1527 1529 1531 1534 1536 1538 1540 1541 1543 1545 1546 1548 1549 1550 1552 1554 1555 1557 1558 1559 1560 1561 1562 1564 1565 1565 1566 1567 1568 1568 1569 1570
1498 1501 1504 1507 1510 1513 1515 1517 1519 1522 1524 1526 1529 1531 1533 1535 1537 1539 1540 1542 1543 1545 1546 1548 1549 1551 1553 1554 1556 1557 1558 1559 1560 1561 1562 1563 1564 1565 1565 1566 1567 1568
1495 1498 1501 1504 1506 1509 1511 1514 1516 1518 1521 1524 1526 1528 1530 1532 1534 1536 1538 1539 1540 1542 1544 1545 1547 1548 1550 1551 1552 1554 1555 1557 1558 1558 1559 1561 1562 1562 1563 1563 1564 1565
1491 1494 1497 1500 1502 1505 1507 1510 1513 1515 1518 1520 1523 1525 1527 1529 1531 1533 1535 1536 1538 1539 1541 1543 1544 1545 1547 1548 1549 1550 1552 1553 1555 1556 1556 1557 1558 1559 1560 1561 1561 1562
1488 1490 1493 1496 1498 1501 1504 1507 1510 1512 1514 1517 1520 1522 1524 1525 1527 1529 1531 1533 1535 1536 1537 1539 1541 1542 1543 1544 1545 1547 1548 1550 1552 1553 1553 1554 1555 1556 1557 1558 1558 1559
1484 1486 1489 1492 1495 1498 1500 1504 1507 1509 1511 1513 1516 1518 1520 1522 1524 1526 1527 1529 1530 1532 1533 1535 1537 1538 1539 1541 1542 1543 1544 1546 1548 1549 1550 1551 1552 1553 1554 1554 1555 1556
1480 1483 1486 1488 1491 1494 1498 1501 1503 1506 1508 1510 1512 1514 1517 1519 1520 1522 1523 1525 1526 1528 1530 1531 1533 1534 1535 1537 1539 1540 1541 1542 1544 1546 1547 1548 1549 1549 1550 1551 1552 1552
1476 1479 1482 1485 1488 1491 1495 1497 1500 1503 1504 1506 1508 1510 1513 1515 1516 1517 1519 1521 1522 1524 1526 1527 1529 1531 1532 1533 1535 1536 1537 1539 1540 1542 1543 1544 1545 1546 1547 1548 1549 1550
1472 1475 1478 1482 1484 1487 1491 1494 1496 1499 1501 1503 1505 1506 1509 1511 1513 1514 1515 1517 1518 1519 1521 1524 1525 1526 1528 1529 1531 1533 1534 1535 1537 1538 1540 1541 1542 1543 1544 1545 1546 1547
1468 1472 1474 1478 1481 1484 1487 1490 1492 1495 1498 1500 1502 1503 1505 1507 1510 1512 1512 1512 1514 1515 1517 1519 1520 1521 1522 1524 1526 1528 1530 1532 1533 1535 1536 1537 1539 1540 1541 1541 1542 1543
1466 1468 1471 1474 1477 1479 1482 1485 1488 1491 1494 1496 1498 1500 1502 1504 1506 1508 1509 1509 1510 1511 1513 1514 1515 1516 1517 1519 1522 1524 1526 1528 1530 1531 1532 1534 1535 1536 1537 1537 1538 1539
1463 1465 1467 1470 1473 1475 1478 1481 1484 1487 1489 1492 1494 1497 1499 1500 1502 1504 1506 1507 1507 1507 1508 1509 1510 1511 1513 1515 1517 1520 1522 1524 1526 1527 1528 1529 1530 1531 1532 1533 1534 1535
1459 1462 1464 1466 1469 1471 1474 1477 1480 1483 1485 1488 1490 1492 1495 1497 1498 1499 1501 1504 1504 1503 1504 1504 1505 1507 1508 1511 1513 1515 1517 1520 1522 1523 1524 1525 1526 1526 1527 1528 1529 1530
1456 1459 1461 1463 1465 1468 1471 1473 1476 1478 1480 1483 1485 1488 1491 1492 1493 1494 1496 1499 1500 1500 1500 1500 1501 1502 1504 1506 1508 1510 1513 1515 1517 1518 1519 1520 1520 1521 1523 1524 1525 1526
1453 1455 1457 1460 1462 1465 1467 1469 1472 1473 1476 1479 1482 1485 1486 1487 1488 1490 1492 1493 1496 1497 1497 1496 1497 1498 1499 1501 1503 1505 1507 1510 1512 1513 1514 1514 1515 1516 1517 1519 1520 1521
1448 1451 1454 1457 1459 1462 1464 1465 1467 1469 1472 1476 1478 1480 1481 1482 1484 1486 1487 1488 1490 1492 1494 1493 1493 1494 1495 1496 1497 1500 1503 1505 1507 1508 1509 1509 1509 1510 1512 1513 1514 1515
1444 1448 1451 1453 1456 1458 1460 1461 1463 1465 1468 1471 1474 1476 1477 1479 1481 1482 1483 1484 1486 1488 1490 1489 1489 1490 1490 1491 1493 1495 1498 1500 1502 1504 1504 1504 1504 1506 1507 1508 1509 1510
1441 1444 1447 1450 1452 1454 1455 1457 1460 1462 1465 1467 1470 1472 1474 1475 1476 1478 1479 1481 1482 1483 1484 1484 1486 1487 1487 1487 1489 1491 1493 1495 1497 1498 1499 1499 1500 1501 1502 1502 1503 1503
1438 1441 1443 1446 1448 1449 1451 1454 1457 1459 1461 1464 1466 1468 1469 1471 1473 1474 1476 1477 1477 1478 1479 1480 1482 1483 1484 1485 1486 1488 1489 1490 1492 1494 1495 1495 1495 1497 1498 1497 1497 1498
1436 1438 1440 1442 1444 1446 1448 1451 1454 1456 1458 1461 1463 1464 1466 1468 1470 1471 1472 1473 1474 1475 1476 1477 1478 1480 1482 1483 1484 1485 1486 1487 1489 1490 1490 1490 1491 1493 1494 1493 1493 1493
1434 1436 1437 1439 1441 1444 1446 1448 1451 1453 1455 1457 1459 1461 1463 1465 1467 1468 1469 1470 1471 1472 1473 1474 1475 1477 1478 1479 1480 1482 1482 1484 1485 1485 1484 1485 1487 1489 1489 1489 1489 1489